Regional Weather Roundup
Issued by NWS

Home | Current Version | Previous Version | Text Only | Print | Product List | Glossary Off
Versions: 1 2 3 4 5 6 7 8 9 10 11 12 13 14 15 16 17 18 19 20 21 22 23 24 25 26 27 28 29 30 31 32 33 34 35 36 37 38 39 40 41 42 43 44 45 46 47 48 49 50

000
ASUS43 KLSX 042059
RWRMO

WEATHER SUMMARY FOR MISSOURI
NATIONAL WEATHER SERVICE SPRINGFIELD MO
300 PM CST WED MAR 04 2015

NOTE: "FAIR" INDICATES FEW OR NO CLOUDS BELOW 12,000 FEET WITH NO
       SIGNIFICANT WEATHER AND/OR OBSTRUCTIONS TO VISIBILITY.
       CURRENT SKY AND/OR WEATHER CONDITIONS ARE NOT AVAILABLE FOR
       CHILLICOTHE AND FARMINGTON.

MOZ001>031-035>038-043-044-053-054-042200-
...NORTHERN AND WESTERN MISSOURI...

CITY           SKY/WX    TMP DP  RH WIND       PRES   REMARKS
KANSAS CTY INT PTSUNNY   28   4  35 N12       30.28S WCI  18
KANSAS C DTWN  CLOUDY    28   2  32 N13G22    30.30S WCI  17
LEE`S SUMMIT   CLOUDY    26   2  35 N14G21    30.29F WCI  14
ST JOSEPH      MOSUNNY   29   4  34 NW12      30.30S WCI  19
CHILLICOTHE      N/A     28   7  41 N9        30.29F WCI  19

$$
MOZ066>068-077>081-088>096-101>105-042200-
...SOUTHWEST MISSOURI...

CITY           SKY/WX    TMP DP  RH WIND       PRES   REMARKS
SPRINGFIELD    FLURRIES  22  13  68 N18G24    30.18R WCI   7
JOPLIN         CLOUDY    24  14  65 N20       30.24R WCI  10

$$
MOZ032>034-039>042-045>050-055>058-069>072-042200-
...CENTRAL MISSOURI...

CITY           SKY/WX    TMP DP  RH WIND       PRES   REMARKS
COLUMBIA       PTSUNNY   24   7  48 N14       30.23F WCI  12
JEFFERSON CITY CLOUDY    25   2  37 N12       30.27F WCI  14
ROLLA          CLOUDY    21   6  52 N12       30.20R WCI   9
SEDALIA        PTSUNNY   25   8  48 N16       30.27F WCI  12
OSAGE BEACH    CLOUDY    23   9  54 N8        30.23S WCI  14

$$
MOZ051-052-059>065-042200-
...EAST CENTRAL MISSOURI...

CITY           SKY/WX    TMP DP  RH WIND       PRES   REMARKS
ST LOUIS INTL  CLOUDY    24   5  44 N14       30.25R WCI  12
SPIRIT OF STL  CLOUDY    23   4  44 N12       30.25R WCI  12
ST CHARLES     CLOUDY    23   7  50 N13       30.26R WCI  11

$$
MOZ072>076-082>087-097>100-106>115-042200-
...SOUTH CENTRAL AND SOUTHEAST MISSOURI...

CITY           SKY/WX    TMP DP  RH WIND       PRES   REMARKS
CAPE GIRARDEAU LGT SNOW  23  20  88 N20       30.18R FOG     WCI   8
FARMINGTON     CLOUDY    19  16  86 N13G18    30.21R WCI   7
POPLAR BLUFF   HVY SNOW  25  20  81 N21G30    30.16R VSB 1/4 WCI  11
WEST PLAINS    SNOW      21  16  81 N14G20    30.15R VSB 1/2 WCI   8

$$



USA.gov is the U.S. government's official web portal to all federal, state and local government web resources and services.